Regional Weather Roundup
Issued by NWS Jackson, KY

Home | Current Version | Previous Version | Graphics & Text | Print | Product List | Glossary On
Versions: 1 2 3 4 5 6 7 8 9 10 11 12 13 14 15 16 17 18 19 20 21 22 23 24 25 26 27
000
ASUS43 KJKL 172210
RWRJKL

EAST KENTUCKY HOURLY WEATHER ROUNDUP
NATIONAL WEATHER SERVICE JACKSON KY
500 PM EST TUE JAN 17 2017

NOTE: "FAIR" INDICATES FEW OR NO CLOUDS BELOW 12,000 FEET WITH
NO SIGNIFICANT WEATHER AND/OR OBSTRUCTIONS TO VISIBILITY.

* THESE REPORTS ARE NOT UNDER NWS QUALITY CONTROL AND MAY NOT
  REPORT WEATHER SUCH AS PRECIPITATION AND FOG.

KYZ079-080-083-085-087-088-110-112-115-119-120-172300
...EASTERN KENTUCKY...

CITY           SKY/WX    TMP DP  RH WIND       PRES   REMARKS
JACKSON        LGT RAIN  61  56  83 SW8       29.97R
LONDON         LGT RAIN  60  57  89 SW8       29.99R FOG
SOMERSET*      CLOUDY    59  59 100 W13G20    30.01S
MONTICELLO*    LGT RAIN  61  59  93 W17       30.02R FOG
WILLIAMSBURG*  CLOUDY    59  59 100 SW6       30.00S
MIDDLESBORO*   HVY RAIN  62  58  87 SW7G17    30.03R
HARLAN APT*    CLOUDY    59  55  88 SW6       30.02S
PIKE CO APT*   LGT RAIN  59  59 100 SW3       29.97S
BIG SANDY APT* CLOUDY    62  58  88 SW9       29.97R
MOREHEAD APT*  CLOUDY    63  54  72 W9        29.96R
ASHLAND*       CLOUDY    66  57  72 W7        29.89R
$$

KYZ035-036-041-042-044-050-067-078-099-172300
...CENTRAL KENTUCKY...

CITY           SKY/WX    TMP DP  RH WIND       PRES   REMARKS
MT STERLING*   MOCLDY    61  48  63 W16G22    29.97R
FLEMING/MASON* CLOUDY    59  52  76 W12       29.95R
DANVILLE*      CLOUDY    59  50  72 SW8G20    29.99R
LEXINGTON      CLOUDY    60  50  69 W15G21    29.97R
FRANKFORT      CLOUDY    58  46  64 NW9       29.96R
LOUISVILLE     CLOUDY    54  43  66 W17G24    30.00R
LEBANON*         N/A     59  48  67 SW10G17   29.99R
GLASGOW*       MOCLDY    59  50  72 W9        30.02R
BOWLING GREEN  PTCLDY    59  46  62 W15G23    30.03R
$$

KYZ091>093-OHZ055-061-077-WVZ005-015-034-035-042-172300
...SOUTHERN OHIO/WEST VIRGINIA...

CITY           SKY/WX    TMP DP  RH WIND       PRES   REMARKS
COVINGTON      MOCLDY    53  43  68 W15       29.95R
COLUMBUS       CLOUDY    58  47  66 W16G23    29.87S
DAYTON         CLOUDY    48  43  82 W18       29.93R
WILMINGTON     MOCLDY    53  45  74 W22G28    29.92R
HUNTINGTON     CLOUDY    66  53  63 SW10G22   29.90S
CHARLESTON     CLOUDY    65  54  67 SW16G22   29.91F
BECKLEY        CLOUDY    56  53  90 SW14G21   29.99S
BLUEFIELD      CLOUDY    56  51  84 W17G25    30.02F
LOGAN CO APT*  CLOUDY    61  57  88 CALM      29.96S
$$

VAZ002-007-008-TNZ017-027-036-066-071-172300
...SOUTHWEST VIRGINIA/EAST TENNESSEE...

CITY           SKY/WX    TMP DP  RH WIND       PRES   REMARKS
WISE*          LGT RAIN  57  57 100 SW13      30.04R
JONESVILLE*    CLOUDY    61  57  88 W6        30.05R
ABINGDON*      CLOUDY    57  57  99 W5        30.05S
BRISTOL        CLOUDY    58  55  90 CALM      30.04F
MORRISTOWN*    MOCLDY    61  59  94 SW14G26   30.03F FOG
SEVIERVILLE*   CLOUDY    61  57  88 SW6       30.05S
KNOXVILLE      LGT RAIN  62  59  90 S13       30.03F
LAFOLLETTE*    CLOUDY    64  59  82 SW12G23   30.04S
OAK RIDGE      CLOUDY    62  59  90 VRB7      30.05S
CROSSVILLE     CLOUDY    61  58  90 SW14G24   30.07R
NASHVILLE      CLOUDY    62  54  74 W7        30.06R
$$

...KEY TO REMARKS...
VSB - VISIBILITY IN MILES
WCI - WIND CHILL INDEX
HX  - HEAT INDEX

$$




USA.gov is the U.S. government's official web portal to all federal, state and local government web resources and services.